When you browse on this site, cookies collect data to enhance your experience and personalize the content and advertising you see.
Visit our Privacy Policy to learn more. By continuing to use the site, you agree to this use of cookies and data.

Meteo orario Seversk

Oggi, 13 Agosto, Giovedi

Tempo Temperatura Precipitazioni Vento Pressione Umidità
00:00 +18°C° 0 mm 3 m/s 752 mm Hg 65%
01:00 +17°C° 0 mm 3 m/s 752 mm Hg 68%
02:00 +17°C° 0 mm 3 m/s 752 mm Hg 71%
03:00 +16°C° 0 mm 3 m/s 752 mm Hg 75%
04:00 +14°C° 0 mm 3 m/s 752 mm Hg 76%
05:00 +14°C° 0 mm 3 m/s 752 mm Hg 77%
06:00 +13°C° 0 mm 3 m/s 753 mm Hg 78%
07:00 +16°C° 0 mm 3 m/s 753 mm Hg 71%
08:00 +18°C° 0 mm 3 m/s 753 mm Hg 63%
09:00 +20°C° 0 mm 3 m/s 753 mm Hg 53%
10:00 +21°C° 0 mm 4 m/s 753 mm Hg 49%
11:00 +22°C° 0 mm 4 m/s 753 mm Hg 45%
12:00 +25°C° 0 mm 5 m/s 753 mm Hg 42%
13:00 +23°C° 0 mm 5 m/s 752 mm Hg 42%
14:00 +23°C° 0 mm 5 m/s 752 mm Hg 43%
15:00 +23°C° 0 mm 5 m/s 752 mm Hg 43%
16:00 +23°C° 0 mm 5 m/s 752 mm Hg 44%
17:00 +22°C° 0 mm 5 m/s 752 mm Hg 46%
18:00 +22°C° 0 mm 5 m/s 753 mm Hg 48%
19:00 +20°C° 0 mm 4 m/s 753 mm Hg 53%
20:00 +18°C° 0 mm 3 m/s 753 mm Hg 59%
21:00 +17°C° 0 mm 2 m/s 753 mm Hg 64%
22:00 +16°C° 0 mm 2 m/s 753 mm Hg 67%
23:00 +16°C° 0 mm 2 m/s 753 mm Hg 69%

Domani, 14 Agosto, Venerdi

Tempo Temperatura Precipitazioni Vento Pressione Umidità
00:00 +15°C° 0 mm 2 m/s 753 mm Hg 71%
01:00 +15°C° 0 mm 2 m/s 753 mm Hg 73%
02:00 +14°C° 0 mm 2 m/s 753 mm Hg 74%
03:00 +14°C° 0 mm 2 m/s 753 mm Hg 76%
04:00 +14°C° 0 mm 2 m/s 753 mm Hg 78%
05:00 +14°C° 0 mm 2 m/s 754 mm Hg 80%
06:00 +13°C° 0 mm 2 m/s 754 mm Hg 82%
07:00 +15°C° 0 mm 2 m/s 754 mm Hg 73%
08:00 +17°C° 0 mm 3 m/s 753 mm Hg 64%
09:00 +19°C° 0 mm 3 m/s 753 mm Hg 56%
10:00 +20°C° 0 mm 3 m/s 753 mm Hg 51%
11:00 +21°C° 0 mm 4 m/s 753 mm Hg 46%
12:00 +22°C° 0 mm 4 m/s 753 mm Hg 41%
13:00 +22°C° 0 mm 4 m/s 753 mm Hg 41%
14:00 +22°C° 0 mm 4 m/s 753 mm Hg 41%
15:00 +22°C° 0 mm 4 m/s 753 mm Hg 41%
16:00 +22°C° 0 mm 4 m/s 753 mm Hg 42%
17:00 +22°C° 0 mm 4 m/s 753 mm Hg 43%
18:00 +21°C° 0 mm 4 m/s 753 mm Hg 44%
19:00 +20°C° 0 mm 3 m/s 753 mm Hg 51%
20:00 +18°C° 0 mm 3 m/s 753 mm Hg 58%
21:00 +17°C° 0 mm 3 m/s 754 mm Hg 64%
22:00 +16°C° 0 mm 3 m/s 754 mm Hg 70%
23:00 +14°C° 0 mm 3 m/s 754 mm Hg 75%

Dopodomani, 15 Agosto, Sabato

Tempo Temperatura Precipitazioni Vento Pressione Umidità
00:00 +13°C° 0 mm 3 m/s 755 mm Hg 81%
01:00 +13°C° 0 mm 3 m/s 755 mm Hg 82%
02:00 +13°C° 0 mm 2 m/s 755 mm Hg 84%
03:00 +13°C° 0 mm 2 m/s 755 mm Hg 85%
04:00 +13°C° 0 mm 2 m/s 755 mm Hg 84%
05:00 +12°C° 0 mm 2 m/s 755 mm Hg 82%
06:00 +12°C° 0 mm 2 m/s 755 mm Hg 81%
07:00 +13°C° 0 mm 3 m/s 756 mm Hg 71%
08:00 +16°C° 0 mm 3 m/s 756 mm Hg 61%
09:00 +18°C° 0 mm 3 m/s 756 mm Hg 51%
10:00 +19°C° 0 mm 4 m/s 756 mm Hg 46%
11:00 +20°C° 0 mm 4 m/s 756 mm Hg 42%
12:00 +21°C° 0 mm 4 m/s 756 mm Hg 38%
13:00 +22°C° 0 mm 5 m/s 756 mm Hg 37%
14:00 +22°C° 0 mm 5 m/s 756 mm Hg 36%
15:00 +23°C° 0 mm 5 m/s 756 mm Hg 35%
16:00 +22°C° 0 mm 5 m/s 756 mm Hg 36%
17:00 +22°C° 0 mm 4 m/s 755 mm Hg 37%
18:00 +22°C° 0 mm 4 m/s 755 mm Hg 37%
19:00 +20°C° 0 mm 4 m/s 755 mm Hg 43%
20:00 +18°C° 0 mm 3 m/s 756 mm Hg 49%
21:00 +17°C° 0 mm 2 m/s 756 mm Hg 54%
22:00 +16°C° 0 mm 2 m/s 756 mm Hg 56%
23:00 +16°C° 0 mm 1 m/s 756 mm Hg 58%

16 Agosto, Domenica

Tempo Temperatura Precipitazioni Vento Pressione Umidità
00:00 +15°C° 0 mm 1 m/s 756 mm Hg 60%
01:00 +15°C° 0 mm 1 m/s 756 mm Hg 63%
02:00 +14°C° 0 mm 1 m/s 756 mm Hg 65%
03:00 +14°C° 0 mm 2 m/s 756 mm Hg 67%
04:00 +14°C° 0 mm 2 m/s 756 mm Hg 68%
05:00 +14°C° 0 mm 2 m/s 756 mm Hg 69%
06:00 +13°C° 0 mm 1 m/s 756 mm Hg 70%
07:00 +16°C° 0 mm 2 m/s 756 mm Hg 63%
08:00 +18°C° 0 mm 2 m/s 756 mm Hg 56%
09:00 +20°C° 0 mm 3 m/s 756 mm Hg 49%
10:00 +21°C° 0 mm 3 m/s 756 mm Hg 45%
11:00 +24°C° 0 mm 3 m/s 756 mm Hg 40%
12:00 +25°C° 0 mm 3 m/s 756 mm Hg 36%
13:00 +25°C° 0 mm 3 m/s 756 mm Hg 36%
14:00 +26°C° 0 mm 4 m/s 756 mm Hg 36%
15:00 +26°C° 0 mm 4 m/s 756 mm Hg 36%
16:00 +26°C° 0 mm 4 m/s 755 mm Hg 37%
17:00 +26°C° 0 mm 4 m/s 755 mm Hg 38%
18:00 +26°C° 0 mm 3 m/s 755 mm Hg 39%
19:00 +24°C° 0 mm 3 m/s 755 mm Hg 44%
20:00 +23°C° 0 mm 2 m/s 755 mm Hg 49%
21:00 +20°C° 0 mm 2 m/s 755 mm Hg 54%
22:00 +19°C° 0 mm 2 m/s 755 mm Hg 58%
23:00 +19°C° 0 mm 2 m/s 756 mm Hg 62%

17 Agosto, Lunedi

Tempo Temperatura Precipitazioni Vento Pressione Umidità
00:00 +18°C° 0 mm 2 m/s 756 mm Hg 66%
01:00 +18°C° 0 mm 2 m/s 756 mm Hg 69%
02:00 +17°C° 0 mm 2 m/s 755 mm Hg 73%
03:00 +17°C° 0 mm 2 m/s 755 mm Hg 76%
04:00 +17°C° 0 mm 2 m/s 755 mm Hg 78%
05:00 +16°C° 0 mm 2 m/s 755 mm Hg 80%
06:00 +16°C° 0 mm 2 m/s 755 mm Hg 82%
07:00 +19°C° 0 mm 2 m/s 755 mm Hg 75%
08:00 +21°C° 0 mm 2 m/s 756 mm Hg 68%
09:00 +24°C° 0 mm 2 m/s 756 mm Hg 60%
10:00 +26°C° 0 mm 3 m/s 755 mm Hg 54%
11:00 +27°C° 0 mm 3 m/s 755 mm Hg 48%
12:00 +29°C° 0 mm 3 m/s 755 mm Hg 42%
13:00 +29°C° 0 mm 3 m/s 755 mm Hg 40%
14:00 +30°C° 0 mm 3 m/s 755 mm Hg 37%
15:00 +31°C° 0 mm 3 m/s 754 mm Hg 34%
16:00 +30°C° 0 mm 3 m/s 754 mm Hg 36%
17:00 +30°C° 0 mm 3 m/s 754 mm Hg 38%
18:00 +29°C° 0 mm 2 m/s 753 mm Hg 40%
19:00 +27°C° 0 mm 2 m/s 753 mm Hg 44%
20:00 +26°C° 0 mm 2 m/s 753 mm Hg 49%
21:00 +24°C° 0 mm 1 m/s 754 mm Hg 54%
22:00 +23°C° 0 mm 1 m/s 754 mm Hg 57%
23:00 +22°C° 0 mm 1 m/s 753 mm Hg 59%

18 Agosto, Martedi

Tempo Temperatura Precipitazioni Vento Pressione Umidità
00:00 +22°C° 0 mm 1 m/s 753 mm Hg 62%
01:00 +21°C° 0 mm 1 m/s 753 mm Hg 64%
02:00 +19°C° 0 mm 0 m/s 753 mm Hg 65%
03:00 +18°C° 0 mm 0 m/s 753 mm Hg 66%
04:00 +18°C° 0 mm 0 m/s 753 mm Hg 67%
05:00 +18°C° 0 mm 0 m/s 753 mm Hg 67%
06:00 +18°C° 0 mm 0 m/s 752 mm Hg 68%
07:00 +21°C° 0 mm 0 m/s 752 mm Hg 61%
08:00 +25°C° 0 mm 1 m/s 752 mm Hg 53%
09:00 +27°C° 0 mm 1 m/s 752 mm Hg 46%
10:00 +29°C° 0 mm 1 m/s 752 mm Hg 41%
11:00 +30°C° 0 mm 1 m/s 752 mm Hg 36%
12:00 +32°C° 0 mm 1 m/s 751 mm Hg 31%
13:00 +32°C° 0 mm 2 m/s 751 mm Hg 31%
14:00 +32°C° 0 mm 2 m/s 751 mm Hg 30%
15:00 +32°C° 0 mm 2 m/s 750 mm Hg 30%
16:00 +31°C° 0 mm 2 m/s 750 mm Hg 31%
17:00 +31°C° 0 mm 2 m/s 750 mm Hg 32%
18:00 +31°C° 0 mm 2 m/s 750 mm Hg 33%
19:00 +29°C° 0 mm 2 m/s 750 mm Hg 36%
20:00 +27°C° 0 mm 2 m/s 750 mm Hg 39%
21:00 +25°C° 0 mm 1 m/s 750 mm Hg 42%
22:00 +25°C° 0 mm 2 m/s 750 mm Hg 44%
23:00 +24°C° 0 mm 2 m/s 749 mm Hg 45%
Mostrare altro